Flag for Peru Weather past 2 weeks in Iquitos, Loreto, Peru

Now
84 °F

Scattered showers. Partly sunny.


Feels Like: 92 °F
Forecast: 73 / 90 °F
Wind: 5 mph from Southwest

Location: Iquitos Airport

Current Time: Jul 31, 2015 at 1:00:18 PM

Latest Report: Jul 31, 2015 at 12:00 PM


Visibility: N/A

Pressure: 29.95 "Hg

Humidity: 74%

Dew point: 75 °F

Location of IquitosLocation

Historic Weather in Iquitos — Graph

°F

Iquitos temperature yesterday

Maximum temperature yesterday: 90 °F (at 3:00 PM)
Minimum temperature yesterday: 72 °F (at 12:00 AM)
Average temperature yesterday: 78 °F

Past Weeks' High & Low Weather Summary

 TemperatureHumidityPressure
High90 °F (Jul 16, 12:00 PM)100% (Jul 17, 7:00 AM)30.04 "Hg (Jul 17, 7:00 AM)
Low72 °F (Jul 17, 2:00 AM)55% (Jul 16, 2:00 PM)29.80 "Hg (Jul 21, 3:00 PM)
Average78 °F86%29.93 "Hg
* Reported Jul 16 12:00 Noon — Jul 31 12:00 Noon, Iquitos, Weather by CustomWeather, © 2015

Note: Actual official high and low records may vary slightly from our data, if they occured in-between our weather recording intervals... More about our weather records

Advertising

Iquitos weather history for previous 24 hours

 ConditionsComfort  
Time TempWeatherWind HumidityBarometerVisibility
12:00 PM
Fri, Jul 31
84 °FScattered showers. Partly sunny.5 mph74%29.95 "HgN/A
11:00 AM86 °FPartly sunny.7 mph70%29.98 "HgN/A
10:00 AM82 °FPartly sunny.7 mph74%29.98 "HgN/A
9:00 AM81 °FPartly sunny.8 mph79%29.98 "HgN/A
8:00 AM79 °FPassing clouds.5 mph84%29.98 "HgN/A
7:00 AM75 °FPassing clouds.No wind89%29.95 "HgN/A
6:00 AM73 °FScattered clouds.No wind94%29.95 "HgN/A
5:00 AM73 °FClear.3 mph94%29.92 "Hg10 mi
4:00 AM75 °FClear.3 mph94%29.92 "Hg10 mi
3:00 AM75 °FClear.3 mph94%29.92 "Hg10 mi
2:00 AM75 °FClear.3 mph94%29.92 "Hg10 mi
1:00 AM75 °FPartly cloudy.3 mph94%29.95 "HgN/A
12:00 AM75 °FClear.3 mph94%29.95 "Hg10 mi
11:00 PM
Thu, Jul 30
77 °FClear.No wind89%29.95 "Hg10 mi
10:00 PM77 °FClear.No wind89%29.95 "Hg10 mi
9:00 PM77 °FPartly cloudy.3 mph89%29.92 "HgN/A
8:00 PM77 °FPassing clouds.No wind89%29.92 "HgN/A
7:00 PM79 °FPassing clouds.1 mph79%29.89 "HgN/A
6:00 PM81 °FPassing clouds.No wind74%29.86 "HgN/A
5:00 PM84 °FScattered clouds.6 mph70%29.83 "HgN/A
4:00 PM86 °FPartly sunny.7 mph66%29.83 "HgN/A
3:00 PM90 °FPartly sunny.6 mph59%29.86 "HgN/A
2:00 PM88 °FPartly sunny.6 mph62%29.89 "HgN/A
1:00 PM88 °FPartly sunny.5 mph62%29.95 "HgN/A
Weather by CustomWeather, © 2015

See weather overviewHow to use our weather pages